This is the latest recevied weather packets stored in our database for station/object SP2MHC-2. If no packets are shown the sender has not sent any weather packets the latest 10 day(s).
| Time | Temp. | Humidity | Pressure | Rain* | Wind** | Luminosity | Snow |
|---|---|---|---|---|---|---|---|
| 1777638319 | 24.44° C | 25% | 1022.8 hPa | - | - | - | - |
| 1777638317 | 24.44° C | 25% | 1022.8 hPa | - | - | - | - |
| 1777637418 | 22.78° C | 26% | 1022.9 hPa | - | - | - | - |
| 1777637417 | 22.78° C | 26% | 1022.9 hPa | - | - | - | - |
| 1777636552 | 22.78° C | 25% | 1023 hPa | - | - | - | - |
| 1777636518 | 22.78° C | 25% | 1023 hPa | - | - | - | - |
| 1777636517 | 22.78° C | 25% | 1023 hPa | - | - | - | - |
| 1777635618 | 22.78° C | 25% | 1023.2 hPa | - | - | - | - |
| 1777635617 | 22.78° C | 25% | 1023.2 hPa | - | - | - | - |
| 1777634720 | 23.33° C | 27% | 1023.1 hPa | - | - | - | - |
| 1777634716 | 23.33° C | 27% | 1023.1 hPa | - | - | - | - |
| 1777633818 | 24.44° C | 28% | 1023.2 hPa | - | - | - | - |
| 1777633816 | 24.44° C | 28% | 1023.2 hPa | - | - | - | - |
| 1777632917 | 23.33° C | 29% | 1023.3 hPa | - | - | - | - |
| 1777632916 | 23.33° C | 29% | 1023.3 hPa | - | - | - | - |
| 1777632017 | 23.89° C | 30% | 1023.4 hPa | - | - | - | - |
| 1777632016 | 23.89° C | 30% | 1023.4 hPa | - | - | - | - |
| 1777631117 | 24.44° C | 30% | 1023.5 hPa | - | - | - | - |
| 1777631116 | 24.44° C | 30% | 1023.5 hPa | - | - | - | - |
| 1777630217 | 24.44° C | 30% | 1023.6 hPa | - | - | - | - |
| 1777630216 | 24.44° C | 30% | 1023.6 hPa | - | - | - | - |
| 1777629349 | 24.44° C | 29% | 1023.8 hPa | - | - | - | - |
| 1777629317 | 24.44° C | 29% | 1023.8 hPa | - | - | - | - |
| 1777629315 | 24.44° C | 29% | 1023.8 hPa | - | - | - | - |
| 1777628450 | 24.44° C | 29% | 1023.8 hPa | - | - | - | - |
* Rain since midnight (hover to see other rain measurements)
** Current wind speed in m/s (hover to see current wind gust speed)